Flag for Nepal Weather past 2 weeks in Kathmandu, Nepal

Now
82 °F

Passing clouds.


Feels Like: 80 °F
Forecast: 58 / 89 °F
Wind: 8 mph from Southwest

Location: Kathmandu Airport


UV Index: 7 (High)

Visibility: N/A


Pressure: 29.98 "Hg

Humidity: 15%

Dew point: 30 °F

Location of KathmanduLocation

Historic Weather in Kathmandu

°F

Kathmandu temperature yesterday

Maximum temperature yesterday: 81 °F (at 12:35 PM)
Minimum temperature yesterday: 48 °F (at 4:35 AM)
Average temperature yesterday: 65 °F

Past Weeks' High & Low Weather Summary

 TemperatureHumidityPressure
High84 °F (Apr 16, 10:35 AM)88% (Apr 4, 12:35 AM)30.21 "Hg (Apr 4, 12:35 AM)
Low48 °F (Apr 4, 5:35 AM)11% (Apr 1, 2:35 PM)29.80 "Hg (Apr 1, 2:35 PM)
Average65 °F53%30.01 "Hg
* Reported Apr 1 10:35 AM — Apr 16 10:35 AM, Kathmandu, Weather by CustomWeather, © 2014

Note: Actual official high and low records may vary slightly from our data, if they occured in-between our weather recording intervals... More about our weather records

Advertising

Historic Weather Conditions — Data for Previous 24 hours

 ConditionsComfort  
Time TempWeatherWind HumidityBarometerVisibility
10:35 AM
Apr 16
84 °FPassing clouds.6 mph14%30.04 "HgN/A
9:35 AM73 °FHaze.3 mph36%30.07 "Hg2 mi
8:35 AM68 °FHaze.No wind43%30.07 "Hg2 mi
7:35 AM59 °FHaze.No wind63%30.04 "Hg1 mi
6:35 AM54 °FFog.No wind72%30.04 "Hg1 mi
5:35 AM54 °FFog.No wind72%30.04 "Hg2 mi
4:35 AM54 °FPassing clouds.No wind72%30.04 "Hg4 mi
2:35 AM57 °FPassing clouds.No wind63%30.04 "Hg4 mi
1:35 AM57 °FPassing clouds.No wind63%30.04 "Hg4 mi
12:35 AM59 °FPassing clouds.6 mph59%30.04 "Hg4 mi
11:35 PM
Apr 15
59 °FPassing clouds.No wind63%30.07 "Hg4 mi
10:35 PM63 °FPassing clouds.No wind52%30.04 "Hg4 mi
9:35 PM66 °FPassing clouds.No wind43%30.07 "Hg4 mi
8:35 PM68 °FPassing clouds.No wind33%30.04 "Hg4 mi
7:35 PM72 °FPassing clouds.5 mph29%30.01 "HgN/A
6:35 PM75 °FScattered clouds.7 mph22%30.01 "HgN/A
5:35 PM77 °FScattered clouds.7 mph18%29.98 "HgN/A
4:35 PM79 °FScattered clouds.9 mph15%29.98 "HgN/A
3:35 PM81 °FPassing clouds.9 mph18%29.98 "HgN/A
2:35 PM81 °FScattered clouds.9 mph18%30.01 "HgN/A
Weather by CustomWeather, © 2014

See weather overview